User: anonymous   Login
Location: Bangkok
(13.7500°N, 100.5170°E)
Time: 08:28:30
(UTC+07:00)
Language:

Cosmos 1898 Rocket - Orbit

View from above orbital plane
View from above orbital plane
View from above satellite
View from above satellite

Ground track
Ground track

The orbit data is extracted from the following two-line orbital elements,

1 18586U 87098B   17086.51133547 +.00000150 +00000-0 +59717-4 0  9990
2 18586 074.0050 085.7318 0020708 165.2607 342.9217 14.36771773535324
Epoch (UTC): 27 March 2017 12:16:19
Eccentricity: 0.0020708
inclination: 74.0050°
perigee height: 754 km
apogee height: 784 km
right ascension of ascending node: 85.7318°
argument of perigee: 165.2607°
revolutions per day: 14.36771773
mean anomaly at epoch: 342.9217°
orbit number at epoch: 53532

The dashed part of the orbit path shows where the satellite is in the earth's shadow,  

DLR